PRIVATE WETTERSTATION BILLIGHEIM-ALLFELD                       ZURCK
Wetterdaten: Samstag, 09.12.2017
Datum Zeit Temp. A. Temp. A. min Temp. A. max Feuchte A. Luftdruck Regen Wind Richtung Richtung Sonnenschein ET Solar Taupunkt Windchill Windben Empfang
09.12.2017 00:00 -0,4 C -0,5 C -0,4 C 91 % 1013,5 hPa 0,0 l/m 4,8 km/h (1 Bft) W 270 0 min 0,000 mm 0 W/m -1,7 C -0,4 C 14,5 km/h (3 Bft) 100 %
09.12.2017 00:10 -0,4 C -0,4 C -0,4 C 91 % 1013,2 hPa 0,0 l/m 4,8 km/h (1 Bft) W-SW 247 0 min 0,000 mm 0 W/m -1,7 C -0,4 C 11,3 km/h (2 Bft) 99 %
09.12.2017 00:20 -0,3 C -0,4 C -0,3 C 91 % 1013,2 hPa 0,0 l/m 4,8 km/h (1 Bft) SW 225 0 min 0,000 mm 0 W/m -1,6 C -0,3 C 14,5 km/h (3 Bft) 100 %
09.12.2017 00:30 -0,4 C -0,4 C -0,3 C 91 % 1013,2 hPa 0,0 l/m 8,0 km/h (2 Bft) SW 225 0 min 0,000 mm 0 W/m -1,7 C -2,1 C 16,1 km/h (3 Bft) 100 %
09.12.2017 00:40 -0,4 C -0,4 C -0,4 C 91 % 1013,3 hPa 0,0 l/m 6,4 km/h (2 Bft) SW 225 0 min 0,000 mm 0 W/m -1,7 C -0,4 C 17,7 km/h (3 Bft) 100 %
09.12.2017 00:50 -0,4 C -0,4 C -0,4 C 91 % 1013,2 hPa 0,0 l/m 6,4 km/h (2 Bft) SW 225 0 min 0,000 mm 0 W/m -1,7 C -0,4 C 19,3 km/h (3 Bft) 99 %
09.12.2017 01:00 -0,5 C -0,5 C -0,4 C 91 % 1013,2 hPa 0,0 l/m 6,4 km/h (2 Bft) W-SW 247 0 min 0,000 mm 0 W/m -1,8 C -0,5 C 17,7 km/h (3 Bft) 99 %
09.12.2017 01:10 -0,6 C -0,6 C -0,5 C 91 % 1013,1 hPa 0,0 l/m 8,0 km/h (2 Bft) W-SW 247 0 min 0,000 mm 0 W/m -1,9 C -2,3 C 17,7 km/h (3 Bft) 100 %
09.12.2017 01:20 -0,7 C -0,7 C -0,6 C 91 % 1013,1 hPa 0,0 l/m 9,7 km/h (2 Bft) W-SW 247 0 min 0,000 mm 0 W/m -2,0 C -4,0 C 24,1 km/h (4 Bft) 100 %
09.12.2017 01:30 -0,7 C -0,8 C -0,7 C 91 % 1013,1 hPa 0,0 l/m 6,4 km/h (2 Bft) W-SW 247 0 min 0,000 mm 0 W/m -2,0 C -0,7 C 22,5 km/h (4 Bft) 100 %
09.12.2017 01:40 -0,8 C -0,8 C -0,7 C 91 % 1013,1 hPa 0,0 l/m 3,2 km/h (1 Bft) W-SW 247 0 min 0,000 mm 0 W/m -2,1 C -0,8 C 16,1 km/h (3 Bft) 100 %
09.12.2017 01:50 -0,9 C -0,9 C -0,8 C 91 % 1013,2 hPa 0,0 l/m 8,0 km/h (2 Bft) W-SW 247 0 min 0,000 mm 0 W/m -2,2 C -2,6 C 22,5 km/h (4 Bft) 100 %
09.12.2017 02:00 -0,9 C -1,0 C -0,9 C 91 % 1013,1 hPa 0,0 l/m 9,7 km/h (2 Bft) W-SW 247 0 min 0,000 mm 0 W/m -2,2 C -4,2 C 24,1 km/h (4 Bft) 100 %
09.12.2017 02:10 -1,0 C -1,0 C -0,9 C 91 % 1013,0 hPa 0,0 l/m 8,0 km/h (2 Bft) W-SW 247 0 min 0,000 mm 0 W/m -2,3 C -2,7 C 22,5 km/h (4 Bft) 90 %
09.12.2017 02:20 -1,1 C -1,1 C -1,0 C 91 % 1013,2 hPa 0,0 l/m 8,0 km/h (2 Bft) W-SW 247 0 min 0,000 mm 0 W/m -2,4 C -2,8 C 22,5 km/h (4 Bft) 100 %
09.12.2017 02:30 -1,0 C -1,1 C -1,0 C 91 % 1013,3 hPa 0,0 l/m 6,4 km/h (2 Bft) SW 225 0 min 0,000 mm 0 W/m -2,3 C -1,0 C 19,3 km/h (3 Bft) 99 %
09.12.2017 02:40 -0,9 C -1,0 C -0,9 C 91 % 1013,5 hPa 0,2 l/m 9,7 km/h (2 Bft) SW 225 0 min 0,000 mm 0 W/m -2,2 C -4,2 C 22,5 km/h (4 Bft) 100 %
09.12.2017 02:50 -0,9 C -0,9 C -0,9 C 91 % 1013,6 hPa 0,0 l/m 6,4 km/h (2 Bft) W-SW 247 0 min 0,000 mm 0 W/m -2,2 C -0,9 C 19,3 km/h (3 Bft) 99 %
09.12.2017 03:00 -0,8 C -0,9 C -0,8 C 91 % 1013,6 hPa 0,2 l/m 6,4 km/h (2 Bft) W-SW 247 0 min 0,000 mm 0 W/m -2,1 C -0,8 C 19,3 km/h (3 Bft) 100 %
09.12.2017 03:10 -0,8 C -0,8 C -0,8 C 91 % 1013,7 hPa 0,0 l/m 8,0 km/h (2 Bft) SW 225 0 min 0,000 mm 0 W/m -2,1 C -2,5 C 20,9 km/h (4 Bft) 100 %
09.12.2017 03:20 -0,8 C -0,8 C -0,8 C 91 % 1013,6 hPa 0,2 l/m 8,0 km/h (2 Bft) SW 225 0 min 0,000 mm 0 W/m -2,1 C -2,5 C 19,3 km/h (3 Bft) 99 %
09.12.2017 03:30 -0,8 C -0,8 C -0,8 C 91 % 1013,6 hPa 0,0 l/m 9,7 km/h (2 Bft) SW 225 0 min 0,000 mm 0 W/m -2,1 C -4,1 C 25,7 km/h (4 Bft) 100 %
09.12.2017 03:40 -0,8 C -0,8 C -0,8 C 91 % 1013,6 hPa 0,0 l/m 8,0 km/h (2 Bft) W-SW 247 0 min 0,000 mm 0 W/m -2,1 C -2,5 C 25,7 km/h (4 Bft) 100 %
09.12.2017 03:50 -0,8 C -0,8 C -0,8 C 91 % 1013,6 hPa 0,0 l/m 12,9 km/h (3 Bft) W-SW 247 0 min 0,000 mm 0 W/m -2,1 C -6,6 C 32,2 km/h (5 Bft) 100 %
09.12.2017 04:00 -0,8 C -0,8 C -0,8 C 91 % 1013,6 hPa 0,0 l/m 11,3 km/h (2 Bft) W 270 0 min 0,000 mm 0 W/m -2,1 C -5,4 C 29,0 km/h (5 Bft) 100 %
09.12.2017 04:10 -0,9 C -0,9 C -0,8 C 91 % 1013,6 hPa 0,2 l/m 11,3 km/h (2 Bft) W-SW 247 0 min 0,000 mm 0 W/m -2,2 C -5,5 C 32,2 km/h (5 Bft) 100 %
09.12.2017 04:20 -0,9 C -0,9 C -0,9 C 91 % 1013,6 hPa 0,0 l/m 9,7 km/h (2 Bft) W-SW 247 0 min 0,000 mm 0 W/m -2,2 C -4,2 C 29,0 km/h (5 Bft) 100 %
09.12.2017 04:30 -0,9 C -0,9 C -0,9 C 91 % 1013,5 hPa 0,0 l/m 6,4 km/h (2 Bft) W-SW 247 0 min 0,000 mm 0 W/m -2,2 C -0,9 C 16,1 km/h (3 Bft) 99 %
09.12.2017 04:40 -0,9 C -0,9 C -0,9 C 91 % 1013,5 hPa 0,0 l/m 4,8 km/h (1 Bft) W-SW 247 0 min 0,000 mm 0 W/m -2,2 C -0,9 C 16,1 km/h (3 Bft) 99 %
09.12.2017 04:50 -0,9 C -0,9 C -0,9 C 91 % 1013,5 hPa 0,0 l/m 9,7 km/h (2 Bft) W-SW 247 0 min 0,000 mm 0 W/m -2,2 C -4,2 C 22,5 km/h (4 Bft) 100 %
09.12.2017 05:00 -0,9 C -0,9 C -0,9 C 91 % 1013,5 hPa 0,0 l/m 6,4 km/h (2 Bft) SW 225 0 min 0,000 mm 0 W/m -2,2 C -0,9 C 17,7 km/h (3 Bft) 100 %
09.12.2017 05:10 -0,9 C -0,9 C -0,9 C 91 % 1013,6 hPa 0,0 l/m 8,0 km/h (2 Bft) W-SW 247 0 min 0,000 mm 0 W/m -2,2 C -2,6 C 20,9 km/h (4 Bft) 100 %
09.12.2017 05:20 -0,9 C -0,9 C -0,9 C 91 % 1013,8 hPa 0,0 l/m 6,4 km/h (2 Bft) W-SW 247 0 min 0,000 mm 0 W/m -2,2 C -0,9 C 24,1 km/h (4 Bft) 99 %
09.12.2017 05:30 -0,9 C -0,9 C -0,9 C 91 % 1013,9 hPa 0,0 l/m 4,8 km/h (1 Bft) W-SW 247 0 min 0,000 mm 0 W/m -2,2 C -0,9 C 16,1 km/h (3 Bft) 100 %
09.12.2017 05:40 -1,0 C -1,0 C -0,9 C 90 % 1013,9 hPa 0,0 l/m 8,0 km/h (2 Bft) W-SW 247 0 min 0,000 mm 0 W/m -2,4 C -2,7 C 24,1 km/h (4 Bft) 99 %
09.12.2017 05:50 -1,0 C -1,0 C -1,0 C 90 % 1013,9 hPa 0,0 l/m 6,4 km/h (2 Bft) W-SW 247 0 min 0,000 mm 0 W/m -2,4 C -1,0 C 24,1 km/h (4 Bft) 100 %
09.12.2017 06:00 -1,1 C -1,1 C -1,0 C 90 % 1014,0 hPa 0,0 l/m 6,4 km/h (2 Bft) W-SW 247 0 min 0,000 mm 0 W/m -2,5 C -1,1 C 20,9 km/h (4 Bft) 98 %
09.12.2017 06:10 -1,1 C -1,1 C -1,1 C 89 % 1014,1 hPa 0,0 l/m 6,4 km/h (2 Bft) W-SW 247 0 min 0,000 mm 0 W/m -2,7 C -1,1 C 22,5 km/h (4 Bft) 98 %
09.12.2017 06:20 -1,2 C -1,2 C -1,1 C 89 % 1014,2 hPa 0,0 l/m 8,0 km/h (2 Bft) W-SW 247 0 min 0,000 mm 0 W/m -2,8 C -2,9 C 24,1 km/h (4 Bft) 97 %
09.12.2017 06:30 -1,3 C -1,3 C -1,2 C 89 % 1014,2 hPa 0,0 l/m 9,7 km/h (2 Bft) SW 225 0 min 0,000 mm 0 W/m -2,9 C -4,6 C 27,4 km/h (4 Bft) 97 %
09.12.2017 06:40 -1,3 C -1,3 C -1,3 C 89 % 1014,5 hPa 0,0 l/m 9,7 km/h (2 Bft) W-SW 247 0 min 0,000 mm 0 W/m -2,9 C -4,6 C 24,1 km/h (4 Bft) 97 %
09.12.2017 06:50 -1,4 C -1,4 C -1,3 C 88 % 1014,3 hPa 0,0 l/m 12,9 km/h (3 Bft) W 270 0 min 0,000 mm 0 W/m -3,1 C -7,3 C 32,2 km/h (5 Bft) 97 %
09.12.2017 07:00 -1,4 C -1,4 C -1,4 C 88 % 1014,4 hPa 0,0 l/m 8,0 km/h (2 Bft) W-SW 247 0 min 0,000 mm 0 W/m -3,1 C -3,1 C 25,7 km/h (4 Bft) 98 %
09.12.2017 07:10 -1,5 C -1,5 C -1,4 C 87 % 1014,6 hPa 0,0 l/m 8,0 km/h (2 Bft) W 270 0 min 0,000 mm 0 W/m -3,4 C -3,2 C 27,4 km/h (4 Bft) 97 %
09.12.2017 07:20 -1,6 C -1,6 C -1,5 C 87 % 1014,6 hPa 0,0 l/m 12,9 km/h (3 Bft) W-SW 247 0 min 0,000 mm 0 W/m -3,5 C -7,5 C 30,6 km/h (5 Bft) 98 %
09.12.2017 07:30 -1,6 C -1,6 C -1,6 C 87 % 1014,8 hPa 0,0 l/m 6,4 km/h (2 Bft) W-SW 247 0 min 0,000 mm 0 W/m -3,5 C -1,6 C 20,9 km/h (4 Bft) 97 %
09.12.2017 07:40 -1,6 C -1,6 C -1,6 C 87 % 1014,8 hPa 0,0 l/m 4,8 km/h (1 Bft) SW 225 0 min 0,000 mm 0 W/m -3,5 C -1,6 C 14,5 km/h (3 Bft) 98 %
09.12.2017 07:50 -1,7 C -1,7 C -1,6 C 87 % 1014,8 hPa 0,0 l/m 4,8 km/h (1 Bft) SW 225 0 min 0,000 mm 0 W/m -3,6 C -1,7 C 14,5 km/h (3 Bft) 97 %
09.12.2017 08:00 -1,7 C -1,7 C -1,7 C 87 % 1014,9 hPa 0,0 l/m 4,8 km/h (1 Bft) S-SW 202 0 min 0,000 mm 0 W/m -3,6 C -1,7 C 12,9 km/h (3 Bft) 98 %
09.12.2017 08:10 -1,9 C -1,9 C -1,7 C 87 % 1015,0 hPa 0,0 l/m 1,6 km/h (1 Bft) S-SW 202 0 min 0,000 mm 0 W/m -3,8 C -1,9 C 11,3 km/h (2 Bft) 98 %
09.12.2017 08:20 -1,9 C -1,9 C -1,9 C 88 % 1015,0 hPa 0,0 l/m 1,6 km/h (1 Bft) SW 225 0 min 0,000 mm 0 W/m -3,6 C -1,9 C 11,3 km/h (2 Bft) 97 %
09.12.2017 08:30 -1,9 C -1,9 C -1,9 C 88 % 1015,1 hPa 0,0 l/m 6,4 km/h (2 Bft) SW 225 0 min 0,000 mm 9 W/m -3,6 C -1,9 C 14,5 km/h (3 Bft) 88 %
09.12.2017 08:40 -1,9 C -2,0 C -1,9 C 89 % 1015,4 hPa 0,0 l/m 3,2 km/h (1 Bft) S-SW 202 0 min 0,000 mm 18 W/m -3,5 C -1,9 C 14,5 km/h (3 Bft) 97 %
09.12.2017 08:50 -1,8 C -1,9 C -1,8 C 90 % 1015,4 hPa 0,0 l/m 3,2 km/h (1 Bft) SW 225 0 min 0,000 mm 23 W/m -3,2 C -1,8 C 14,5 km/h (3 Bft) 98 %
09.12.2017 09:00 -1,7 C -1,8 C -1,7 C 90 % 1015,5 hPa 0,0 l/m 4,8 km/h (1 Bft) SW 225 0 min 0,000 mm 9 W/m -3,1 C -1,7 C 16,1 km/h (3 Bft) 97 %
09.12.2017 09:10 -1,6 C -1,7 C -1,6 C 90 % 1015,6 hPa 0,0 l/m 6,4 km/h (2 Bft) SW 225 0 min 0,000 mm 12 W/m -3,0 C -1,6 C 20,9 km/h (4 Bft) 97 %
09.12.2017 09:20 -1,5 C -1,6 C -1,5 C 89 % 1015,6 hPa 0,0 l/m 4,8 km/h (1 Bft) SW 225 0 min 0,000 mm 23 W/m -3,1 C -1,5 C 16,1 km/h (3 Bft) 98 %
09.12.2017 09:30 -1,3 C -1,5 C -1,3 C 89 % 1015,9 hPa 0,0 l/m 6,4 km/h (2 Bft) SW 225 0 min 0,000 mm 49 W/m -2,9 C -1,3 C 16,1 km/h (3 Bft) 97 %
09.12.2017 09:40 -1,2 C -1,3 C -1,2 C 89 % 1016,1 hPa 0,0 l/m 3,2 km/h (1 Bft) SW 225 0 min 0,000 mm 51 W/m -2,8 C -1,2 C 14,5 km/h (3 Bft) 98 %
09.12.2017 09:50 -1,1 C -1,2 C -1,1 C 88 % 1016,1 hPa 0,0 l/m 4,8 km/h (1 Bft) W-SW 247 0 min 0,000 mm 19 W/m -2,8 C -1,1 C 16,1 km/h (3 Bft) 89 %
09.12.2017 10:00 -1,1 C -1,1 C -1,1 C 89 % 1016,1 hPa 0,0 l/m 6,4 km/h (2 Bft) W 270 0 min 0,000 mm 26 W/m -2,7 C -1,1 C 22,5 km/h (4 Bft) 97 %
09.12.2017 10:10 -1,0 C -1,1 C -1,0 C 89 % 1016,4 hPa 0,0 l/m 6,4 km/h (2 Bft) W-SW 247 0 min 0,000 mm 25 W/m -2,6 C -1,0 C 22,5 km/h (4 Bft) 98 %
09.12.2017 10:20 -1,0 C -1,0 C -1,0 C 88 % 1016,3 hPa 0,0 l/m 4,8 km/h (1 Bft) SW 225 0 min 0,000 mm 32 W/m -2,7 C -1,0 C 19,3 km/h (3 Bft) 98 %
09.12.2017 10:30 -0,9 C -1,0 C -0,9 C 94 % 1016,4 hPa 0,0 l/m 11,3 km/h (2 Bft) W-SW 247 0 min 0,000 mm 49 W/m -1,7 C -5,5 C 29,0 km/h (5 Bft) 98 %
09.12.2017 10:40 -0,9 C -0,9 C -0,9 C 87 % 1016,5 hPa 0,0 l/m 11,3 km/h (2 Bft) W-SW 247 0 min 0,000 mm 42 W/m -2,8 C -5,5 C 25,7 km/h (4 Bft) 97 %
09.12.2017 11:00 -0,8 C -0,9 C -0,8 C 86 % 1016,3 hPa 0,0 l/m 4,8 km/h (1 Bft) W 265 0 min 0,025 mm 51 W/m -2,8 C -0,8 C 16,1 km/h (3 Bft) 100 %
09.12.2017 11:10 -0,7 C -0,8 C -0,7 C 85 % 1016,3 hPa 0,0 l/m 8,7 km/h (2 Bft) W 265 0 min 0,000 mm 40 W/m -2,9 C -3,1 C 22,5 km/h (4 Bft) 100 %
09.12.2017 11:20 -0,7 C -0,7 C -0,7 C 84 % 1016,2 hPa 0,0 l/m 6,9 km/h (2 Bft) SW 221 0 min 0,000 mm 35 W/m -3,1 C -1,2 C 24,1 km/h (4 Bft) 100 %
09.12.2017 11:30 -0,7 C -0,7 C -0,7 C 84 % 1016,2 hPa 0,0 l/m 6,3 km/h (2 Bft) SW 217 0 min 0,000 mm 39 W/m -3,1 C -0,7 C 19,3 km/h (3 Bft) 100 %
09.12.2017 11:40 -0,6 C -0,7 C -0,6 C 83 % 1016,2 hPa 0,0 l/m 9,4 km/h (2 Bft) S-SW 207 0 min 0,000 mm 40 W/m -3,1 C -3,6 C 27,4 km/h (4 Bft) 100 %
09.12.2017 11:50 -0,5 C -0,6 C -0,5 C 83 % 1016,1 hPa 0,0 l/m 7,8 km/h (2 Bft) SW 225 0 min 0,000 mm 39 W/m -3,0 C -2,0 C 19,3 km/h (3 Bft) 100 %
09.12.2017 12:00 -0,4 C -0,6 C -0,4 C 83 % 1016,2 hPa 0,0 l/m 5,6 km/h (1 Bft) W-SW 249 0 min 0,026 mm 47 W/m -2,9 C -0,4 C 20,9 km/h (4 Bft) 100 %
09.12.2017 12:10 -0,4 C -0,4 C -0,4 C 82 % 1016,1 hPa 0,0 l/m 7,6 km/h (2 Bft) W-SW 240 0 min 0,000 mm 47 W/m -3,1 C -1,7 C 24,1 km/h (4 Bft) 100 %
09.12.2017 12:20 -0,5 C -0,5 C -0,4 C 80 % 1016,2 hPa 0,0 l/m 11,6 km/h (2 Bft) SW 232 0 min 0,000 mm 39 W/m -3,5 C -5,3 C 27,4 km/h (4 Bft) 100 %
09.12.2017 12:30 -0,5 C -0,5 C -0,4 C 81 % 1016,2 hPa 0,0 l/m 6,8 km/h (2 Bft) W 261 0 min 0,000 mm 47 W/m -3,3 C -0,9 C 24,1 km/h (4 Bft) 100 %
09.12.2017 12:40 -0,4 C -0,5 C -0,4 C 81 % 1016,1 hPa 0,0 l/m 12,3 km/h (3 Bft) SW 222 0 min 0,000 mm 40 W/m -3,3 C -5,7 C 27,4 km/h (4 Bft) 100 %
09.12.2017 12:50 -0,5 C -0,5 C -0,4 C 81 % 1016,0 hPa 0,0 l/m 14,0 km/h (3 Bft) SW 222 0 min 0,000 mm 44 W/m -3,3 C -7,0 C 33,8 km/h (5 Bft) 91 %
09.12.2017 13:00 -0,5 C -0,5 C -0,5 C 80 % 1015,9 hPa 0,0 l/m 16,5 km/h (3 Bft) W-SW 237 0 min 0,025 mm 44 W/m -3,5 C -8,5 C 35,4 km/h (5 Bft) 100 %
09.12.2017 13:10 -0,4 C -0,5 C -0,4 C 80 % 1016,1 hPa 0,0 l/m 12,1 km/h (2 Bft) W 261 0 min 0,000 mm 58 W/m -3,4 C -5,5 C 29,0 km/h (5 Bft) 100 %
09.12.2017 13:20 -0,3 C -0,4 C -0,3 C 80 % 1016,1 hPa 0,0 l/m 9,3 km/h (2 Bft) SW 224 0 min 0,000 mm 62 W/m -3,3 C -3,2 C 24,1 km/h (4 Bft) 100 %
09.12.2017 13:30 -0,2 C -0,3 C -0,2 C 78 % 1015,9 hPa 0,0 l/m 17,6 km/h (3 Bft) SW 217 0 min 0,000 mm 83 W/m -3,6 C -8,7 C 38,6 km/h (5 Bft) 91 %
09.12.2017 13:40 0,0 C -0,2 C 0,0 C 79 % 1016,0 hPa 0,0 l/m 11,9 km/h (2 Bft) W-SW 248 0 min 0,000 mm 67 W/m -3,2 C -4,9 C 29,0 km/h (5 Bft) 100 %
09.12.2017 13:50 -0,1 C -0,1 C 0,0 C 78 % 1015,9 hPa 0,0 l/m 14,1 km/h (3 Bft) SW 223 0 min 0,000 mm 70 W/m -3,5 C -6,5 C 30,6 km/h (5 Bft) 100 %
09.12.2017 14:00 -0,1 C -0,1 C -0,1 C 78 % 1015,9 hPa 0,0 l/m 12,3 km/h (3 Bft) W-SW 237 0 min 0,051 mm 69 W/m -3,5 C -5,3 C 30,6 km/h (5 Bft) 100 %
09.12.2017 14:10 -0,2 C -0,2 C -0,1 C 79 % 1015,8 hPa 0,0 l/m 14,9 km/h (3 Bft) S-SW 211 0 min 0,000 mm 69 W/m -3,4 C -7,2 C 35,4 km/h (5 Bft) 92 %
09.12.2017 14:20 -0,3 C -0,3 C -0,2 C 78 % 1015,9 hPa 0,0 l/m 13,2 km/h (3 Bft) W 269 0 min 0,000 mm 33 W/m -3,7 C -6,2 C 29,0 km/h (5 Bft) 100 %
09.12.2017 14:30 -0,4 C -0,4 C -0,3 C 79 % 1015,9 hPa 0,0 l/m 16,4 km/h (3 Bft) W-SW 248 0 min 0,000 mm 25 W/m -3,6 C -8,3 C 37,0 km/h (5 Bft) 100 %
09.12.2017 14:40 -0,4 C -0,4 C -0,4 C 80 % 1015,8 hPa 0,0 l/m 15,1 km/h (3 Bft) SW 221 0 min 0,000 mm 30 W/m -3,4 C -7,5 C 30,6 km/h (5 Bft) 100 %
09.12.2017 14:50 -0,5 C -0,5 C -0,4 C 81 % 1015,8 hPa 0,0 l/m 16,4 km/h (3 Bft) S-SW 193 0 min 0,000 mm 35 W/m -3,3 C -8,4 C 30,6 km/h (5 Bft) 100 %
09.12.2017 15:00 -0,5 C -0,5 C -0,4 C 80 % 1015,9 hPa 0,0 l/m 12,7 km/h (3 Bft) S-SW 199 0 min 0,025 mm 37 W/m -3,5 C -6,1 C 30,6 km/h (5 Bft) 91 %
09.12.2017 15:10 -0,5 C -0,5 C -0,4 C 81 % 1016,0 hPa 0,0 l/m 14,2 km/h (3 Bft) S-SW 194 0 min 0,000 mm 16 W/m -3,3 C -7,1 C 30,6 km/h (5 Bft) 100 %
09.12.2017 15:20 -0,5 C -0,5 C -0,4 C 81 % 1016,0 hPa 0,0 l/m 15,8 km/h (3 Bft) SW 229 0 min 0,000 mm 16 W/m -3,3 C -8,1 C 33,8 km/h (5 Bft) 100 %
09.12.2017 15:30 -0,6 C -0,6 C -0,5 C 80 % 1015,9 hPa 0,0 l/m 18,0 km/h (3 Bft) SW 225 0 min 0,000 mm 19 W/m -3,6 C -9,4 C 35,4 km/h (5 Bft) 100 %
09.12.2017 15:40 -0,6 C -0,6 C -0,5 C 80 % 1015,9 hPa 0,0 l/m 13,2 km/h (3 Bft) SW 220 0 min 0,000 mm 16 W/m -3,6 C -6,5 C 29,0 km/h (5 Bft) 100 %
09.12.2017 15:50 -0,6 C -0,6 C -0,5 C 80 % 1015,8 hPa 0,0 l/m 15,9 km/h (3 Bft) SW 222 0 min 0,000 mm 14 W/m -3,6 C -8,2 C 32,2 km/h (5 Bft) 100 %
09.12.2017 16:00 -0,6 C -0,6 C -0,5 C 80 % 1015,8 hPa 0,0 l/m 16,1 km/h (3 Bft) W 259 0 min 0,026 mm 11 W/m -3,6 C -8,4 C 30,6 km/h (5 Bft) 100 %
09.12.2017 16:10 -0,6 C -0,6 C -0,6 C 81 % 1015,8 hPa 0,0 l/m 10,1 km/h (2 Bft) W-SW 252 0 min 0,000 mm 5 W/m -3,4 C -4,2 C 27,4 km/h (4 Bft) 100 %
09.12.2017 16:20 -0,7 C -0,7 C -0,6 C 83 % 1015,8 hPa 0,0 l/m 9,2 km/h (2 Bft) W-SW 248 0 min 0,000 mm 0 W/m -3,2 C -3,5 C 24,1 km/h (4 Bft) 100 %
09.12.2017 16:30 -0,7 C -0,7 C -0,7 C 84 % 1015,9 hPa 0,1 l/m 8,1 km/h (2 Bft) S-SW 205 0 min 0,000 mm 0 W/m -3,1 C -2,5 C 24,1 km/h (4 Bft) 100 %
09.12.2017 16:40 -0,8 C -0,9 C -0,7 C 85 % 1015,7 hPa 0,0 l/m 9,5 km/h (2 Bft) W-SW 241 0 min 0,000 mm 0 W/m -3,0 C -3,9 C 25,7 km/h (4 Bft) 100 %
09.12.2017 16:50 -0,9 C -0,9 C -0,8 C 85 % 1015,7 hPa 0,0 l/m 9,3 km/h (2 Bft) W-SW 248 0 min 0,000 mm 0 W/m -3,1 C -3,8 C 25,7 km/h (4 Bft) 100 %
09.12.2017 17:00 -0,9 C -0,9 C -0,9 C 85 % 1015,7 hPa 0,0 l/m 7,8 km/h (2 Bft) S-SW 210 0 min 0,000 mm 0 W/m -3,1 C -2,4 C 22,5 km/h (4 Bft) 100 %
09.12.2017 17:10 -0,8 C -0,9 C -0,8 C 84 % 1015,7 hPa 0,0 l/m 8,4 km/h (2 Bft) W-SW 254 0 min 0,000 mm 0 W/m -3,2 C -2,9 C 20,9 km/h (4 Bft) 100 %
09.12.2017 17:20 -0,8 C -0,8 C -0,8 C 84 % 1015,5 hPa 0,0 l/m 9,0 km/h (2 Bft) W 263 0 min 0,000 mm 0 W/m -3,2 C -3,4 C 20,9 km/h (4 Bft) 100 %
09.12.2017 17:30 -0,8 C -0,8 C -0,7 C 84 % 1015,5 hPa 0,0 l/m 11,2 km/h (2 Bft) SW 232 0 min 0,000 mm 0 W/m -3,2 C -5,3 C 24,1 km/h (4 Bft) 100 %
09.12.2017 17:40 -0,7 C -0,8 C -0,7 C 84 % 1015,6 hPa 0,0 l/m 8,1 km/h (2 Bft) S-SW 209 0 min 0,000 mm 0 W/m -3,1 C -2,5 C 19,3 km/h (3 Bft) 100 %
09.12.2017 17:50 -0,7 C -0,7 C -0,7 C 83 % 1015,5 hPa 0,0 l/m 13,2 km/h (3 Bft) W-SW 248 0 min 0,000 mm 0 W/m -3,2 C -6,7 C 32,2 km/h (5 Bft) 100 %
09.12.2017 18:00 -0,7 C -0,7 C -0,6 C 83 % 1015,6 hPa 0,0 l/m 12,0 km/h (2 Bft) S-SW 210 0 min 0,000 mm 0 W/m -3,2 C -5,8 C 27,4 km/h (4 Bft) 100 %
09.12.2017 18:10 -0,6 C -0,7 C -0,6 C 83 % 1015,6 hPa 0,0 l/m 10,7 km/h (2 Bft) SW 227 0 min 0,025 mm 0 W/m -3,1 C -4,7 C 29,0 km/h (5 Bft) 100 %
09.12.2017 18:20 -0,6 C -0,6 C -0,6 C 83 % 1015,6 hPa 0,0 l/m 12,4 km/h (3 Bft) SW 236 0 min 0,000 mm 0 W/m -3,1 C -6,0 C 27,4 km/h (4 Bft) 100 %
09.12.2017 18:30 -0,6 C -0,6 C -0,6 C 83 % 1015,7 hPa 0,0 l/m 9,2 km/h (2 Bft) W-SW 257 0 min 0,000 mm 0 W/m -3,1 C -3,4 C 27,4 km/h (4 Bft) 100 %
09.12.2017 18:40 -0,5 C -0,6 C -0,5 C 83 % 1015,7 hPa 0,0 l/m 10,3 km/h (2 Bft) SW 232 0 min 0,000 mm 0 W/m -3,0 C -4,3 C 30,6 km/h (5 Bft) 100 %
09.12.2017 18:50 -0,5 C -0,6 C -0,5 C 83 % 1015,6 hPa 0,0 l/m 10,2 km/h (2 Bft) SW 229 0 min 0,000 mm 0 W/m -3,0 C -4,2 C 25,7 km/h (4 Bft) 100 %
09.12.2017 19:00 -0,5 C -0,6 C -0,5 C 83 % 1015,6 hPa 0,0 l/m 8,8 km/h (2 Bft) SW 215 0 min 0,000 mm 0 W/m -3,0 C -2,9 C 22,5 km/h (4 Bft) 100 %
09.12.2017 19:10 -0,5 C -0,5 C -0,5 C 83 % 1015,6 hPa 0,0 l/m 11,4 km/h (2 Bft) SW 229 0 min 0,025 mm 0 W/m -3,0 C -5,1 C 25,7 km/h (4 Bft) 100 %
09.12.2017 19:20 -0,5 C -0,5 C -0,5 C 82 % 1015,5 hPa 0,0 l/m 11,1 km/h (2 Bft) SW 225 0 min 0,001 mm 0 W/m -3,2 C -4,9 C 24,1 km/h (4 Bft) 100 %
09.12.2017 19:30 -0,5 C -0,5 C -0,5 C 82 % 1015,5 hPa 0,0 l/m 11,6 km/h (2 Bft) SW 232 0 min 0,000 mm 0 W/m -3,2 C -5,3 C 27,4 km/h (4 Bft) 100 %
09.12.2017 19:40 -0,4 C -0,5 C -0,4 C 82 % 1015,5 hPa 0,0 l/m 10,8 km/h (2 Bft) W-SW 256 0 min 0,000 mm 0 W/m -3,1 C -4,5 C 25,7 km/h (4 Bft) 97 %
09.12.2017 19:50 -0,4 C -0,4 C -0,4 C 82 % 1015,5 hPa 0,0 l/m 11,8 km/h (2 Bft) SW 220 0 min 0,000 mm 0 W/m -3,1 C -5,3 C 29,0 km/h (5 Bft) 93 %
09.12.2017 20:00 -0,4 C -0,4 C -0,4 C 82 % 1015,5 hPa 0,0 l/m 11,5 km/h (2 Bft) W-SW 247 0 min 0,000 mm 0 W/m -3,1 C -5,1 C 24,1 km/h (4 Bft) 100 %
09.12.2017 20:10 -0,3 C -0,4 C -0,3 C 82 % 1015,4 hPa 0,0 l/m 9,2 km/h (2 Bft) W-SW 242 0 min 0,025 mm 0 W/m -3,0 C -3,1 C 29,0 km/h (5 Bft) 100 %
09.12.2017 20:20 -0,4 C -0,4 C -0,3 C 82 % 1015,3 hPa 0,0 l/m 10,9 km/h (2 Bft) SW 221 0 min 0,000 mm 0 W/m -3,1 C -4,6 C 29,0 km/h (5 Bft) 100 %
09.12.2017 20:30 -0,4 C -0,4 C -0,3 C 82 % 1015,3 hPa 0,0 l/m 12,2 km/h (2 Bft) S-SW 198 0 min 0,000 mm 0 W/m -3,1 C -5,6 C 25,7 km/h (4 Bft) 100 %
09.12.2017 20:40 -0,4 C -0,4 C -0,4 C 82 % 1015,3 hPa 0,0 l/m 12,1 km/h (2 Bft) SW 220 0 min 0,000 mm 0 W/m -3,1 C -5,5 C 20,9 km/h (4 Bft) 100 %
09.12.2017 20:50 -0,5 C -0,5 C -0,4 C 81 % 1015,2 hPa 0,0 l/m 12,6 km/h (3 Bft) SW 236 0 min 0,000 mm 0 W/m -3,3 C -6,0 C 20,9 km/h (4 Bft) 100 %
09.12.2017 21:00 -0,5 C -0,5 C -0,4 C 81 % 1015,2 hPa 0,0 l/m 9,5 km/h (2 Bft) SW 222 0 min 0,000 mm 0 W/m -3,3 C -3,6 C 22,5 km/h (4 Bft) 100 %
09.12.2017 21:10 -0,5 C -0,5 C -0,5 C 81 % 1015,2 hPa 0,0 l/m 8,0 km/h (2 Bft) SW 225 0 min 0,000 mm 0 W/m -3,3 C -2,2 C 19,3 km/h (3 Bft) 100 %
09.12.2017 21:20 -0,6 C -0,6 C -0,5 C 80 % 1015,3 hPa 0,0 l/m 9,7 km/h (2 Bft) SW 225 0 min 0,000 mm 0 W/m -3,6 C -3,9 C 22,5 km/h (4 Bft) 100 %
09.12.2017 21:30 -0,6 C -0,6 C -0,6 C 80 % 1015,3 hPa 0,0 l/m 8,0 km/h (2 Bft) SW 225 0 min 0,000 mm 0 W/m -3,6 C -2,3 C 17,7 km/h (3 Bft) 100 %
09.12.2017 21:40 -0,6 C -0,6 C -0,6 C 80 % 1015,2 hPa 0,0 l/m 9,7 km/h (2 Bft) S-SW 202 0 min 0,000 mm 0 W/m -3,6 C -3,9 C 24,1 km/h (4 Bft) 100 %
09.12.2017 21:50 -0,6 C -0,6 C -0,6 C 79 % 1015,0 hPa 0,0 l/m 8,0 km/h (2 Bft) SW 225 0 min 0,000 mm 0 W/m -3,8 C -2,3 C 17,7 km/h (3 Bft) 100 %
09.12.2017 22:00 -0,6 C -0,6 C -0,6 C 79 % 1014,9 hPa 0,0 l/m 11,3 km/h (2 Bft) SW 225 0 min 0,025 mm 0 W/m -3,8 C -5,2 C 27,4 km/h (4 Bft) 99 %
09.12.2017 22:10 -0,7 C -0,7 C -0,6 C 78 % 1014,8 hPa 0,0 l/m 12,9 km/h (3 Bft) SW 225 0 min 0,000 mm 0 W/m -4,0 C -6,5 C 22,5 km/h (4 Bft) 100 %
09.12.2017 22:20 -0,7 C -0,7 C -0,7 C 78 % 1014,6 hPa 0,0 l/m 9,7 km/h (2 Bft) SW 225 0 min 0,000 mm 0 W/m -4,0 C -4,0 C 20,9 km/h (4 Bft) 100 %
09.12.2017 22:30 -0,7 C -0,7 C -0,7 C 78 % 1014,5 hPa 0,0 l/m 6,4 km/h (2 Bft) S-SW 202 0 min 0,000 mm 0 W/m -4,0 C -0,7 C 14,5 km/h (3 Bft) 100 %
09.12.2017 22:40 -0,8 C -0,8 C -0,7 C 79 % 1014,4 hPa 0,0 l/m 8,0 km/h (2 Bft) S-SW 202 0 min 0,000 mm 0 W/m -4,0 C -2,5 C 19,3 km/h (3 Bft) 100 %
09.12.2017 22:50 -0,9 C -0,9 C -0,7 C 79 % 1014,2 hPa 0,0 l/m 8,0 km/h (2 Bft) S-SW 202 0 min 0,000 mm 0 W/m -4,1 C -2,6 C 16,1 km/h (3 Bft) 100 %
09.12.2017 23:00 -1,0 C -1,0 C -0,9 C 80 % 1014,1 hPa 0,0 l/m 9,7 km/h (2 Bft) S-SW 202 0 min 0,025 mm 0 W/m -4,0 C -4,3 C 17,7 km/h (3 Bft) 100 %
09.12.2017 23:10 -1,0 C -1,0 C -1,0 C 80 % 1013,9 hPa 0,0 l/m 6,4 km/h (2 Bft) S-SW 202 0 min 0,000 mm 0 W/m -4,0 C -1,0 C 17,7 km/h (3 Bft) 100 %
09.12.2017 23:20 -1,2 C -1,2 C -1,0 C 81 % 1013,7 hPa 0,0 l/m 8,0 km/h (2 Bft) S 180 0 min 0,000 mm 0 W/m -4,0 C -2,9 C 16,1 km/h (3 Bft) 100 %
09.12.2017 23:30 -1,4 C -1,4 C -1,2 C 81 % 1013,5 hPa 0,0 l/m 8,0 km/h (2 Bft) S-SW 202 0 min 0,000 mm 0 W/m -4,2 C -3,1 C 16,1 km/h (3 Bft) 98 %
09.12.2017 23:40 -1,6 C -1,6 C -1,4 C 81 % 1013,5 hPa 0,0 l/m 8,0 km/h (2 Bft) S-SW 202 0 min 0,000 mm 0 W/m -4,4 C -3,3 C 17,7 km/h (3 Bft) 92 %
09.12.2017 23:50 -1,7 C -1,7 C -1,6 C 81 % 1013,4 hPa 0,0 l/m 4,8 km/h (1 Bft) S-SW 202 0 min 0,000 mm 0 W/m -4,5 C -1,7 C 14,5 km/h (3 Bft) 100 %
_ Min-Zeit 08:40 08:40 08:20 13:30 02:10 - 08:10 - - - - - 23:50 15:30 00:10 08:30
Minimum _ -2,0 C -2,0 C -1,9 C 78 % 1013,0 hPa - 1,6 km/h (1 Bft) - - - - - -4,5 C -9,4 C 11,3 km/h (2 Bft) 88 %
_ Max-Zeit 13:40 13:50 13:40 10:30 10:40 02:40 15:30 - - 00:00 14:00 13:30 00:20 00:20 13:30 00:00
Maximum _ 0,0 C -0,1 C 0,0 C 94 % 1016,5 hPa 0,2 l/m 18,0 km/h
SW (3 Bft)
- - 0 min 0,051 mm 83 W/m -1,6 C -0,3 C 38,6 km/h
S-SW (5 Bft)
100 %
Durchschnitt _ -0,8 C -0,8 C -0,8 C 85 % 1014,9 hPa #0,9 l/m 9,1 km/h (2 Bft) SW - #0 min. #0,304 mm 36 W/m -3,0 C -3,5 C 23,2 km/h (4 Bft) 99 %
PRIVATE WETTERSTATION BILLIGHEIM-ALLFELD - www.neckar-odenwald-wetter.de - Holger Sonntag